User: anonymous   Login
Location: Pilipovskiye Korichintsy
(49.1833°N, 27.4667°E)
Time: 13:16:39
(UTC+00:00)
Language:

CZ-2D R/B - Orbit

View from above orbital plane
View from above orbital plane
View from above satellite
View from above satellite

Ground track
Ground track

The orbit data is extracted from the following two-line orbital elements,

1 36597U 10027B   20272.14029037  .00000216  00000-0  27266-4 0  9995
2 36597  97.8797 229.8740 0061806   3.8750 356.2934 14.90718808558922
Epoch (UTC): 28 September 2020 03:22:01
Eccentricity: 0.0061806
inclination: 97.8797°
perigee height: 552 km
apogee height: 639 km
right ascension of ascending node: 229.8740°
argument of perigee: 3.8750°
revolutions per day: 14.90718808
mean anomaly at epoch: 356.2934°
orbit number at epoch: 55892

The dashed part of the orbit path shows where the satellite is in the earth's shadow,  

DLR